Strona główna
METAR-TAF:

METAR-TAF

Lotnisko :

Platforma wiertnicza

J6-a, Holandia

Szerokość geograficzna: 53-49-27N, Długość geograficzna: 2-56-43E, wysokość: 34 m

Aktualna obserwacja pogody

Raport powstał 39 minut temu, godzina 01:55 UTC
Wiatr 47 kt od południowy zachód
Temperatura 7°C
Wilgotność 70%
Ciśnienie 996 hPa

METAR: EHJA 170155Z AUTO 23047KT //// // FEW029/// 07/02 Q0996 RE//

czas: 03:34 (02:34 UTC)


TAF: brakujący

Obserwacja i prognoza pogody dla ponad 4000 lotnisk (raport METAR i TAF).

Dostępne stacje oznaczono żółtymi i czerwonymi punktami na mapie.

Najedź kursorem aby zobaczyć nazwę stacji.

Kliknij aby zobaczyć obserwacje i prognozy pogody.

Aby zmienić mapę: kliknij na zielony przycisk z czarnym krzyżykiem, aby powiększyć; na zielony przycisk z myślnikiem, aby pomniejszyć; na zielone strzałki, aby przejść do map sąsiednich.


METAR-TAF: